Location: Unspecified
(48.5670°N, 0.0000°E)
Time: 23:47:26
(UTC+00:00)

Vanguard 2 Rocket - Pass Details

Date: 02 September 2019
Orbit: 554 x 3326 km, 32.9° (Epoch: 21 September)

Event Time Altitude Azimuth Distance (km) Brightness Sun altitude
Rises 22:46:47 0° 193° (SSW) 3,342 - -31.4°
Reaches altitude 10° 22:50:56 10° 161° (SSE) 2,850 - -31.7°
Maximum altitude 22:53:19 12° 140° (SE) 2,979 - -31.8°
Drops below altitude 10° 22:56:03 10° 121° (ESE) 3,440 - -32.0°
Exits shadow 23:02:18 - 96° (E) 5,074 10.5 -32.3°
Sets 23:02:41 0° 95° (E) 5,186 10.6 -32.3°
